Waarnemingen

Advertentie
Mijn weer
Groningen Eelde, Nederland (6280): temperatuur & dauwpunt: 05.12.2018 17:00:00 - 11.12.2018 17:00:00 (CET)Groningen Eelde, Nederland (6280): temperatuur 5cm: 05.12.2018 17:00:00 - 11.12.2018 17:00:00 (CET)Groningen Eelde, Nederland (6280): windsnelheid & windstoten: 05.12.2018 17:00:00 - 11.12.2018 17:00:00 (CET)Groningen Eelde, Nederland (6280): windrichting: 05.12.2018 17:00:00 - 11.12.2018 17:00:00 (CET)Groningen Eelde, Nederland (6280): luchtdruk: 05.12.2018 17:00:00 - 11.12.2018 17:00:00 (CET)Groningen Eelde, Nederland (6280): zicht: 05.12.2018 17:00:00 - 11.12.2018 17:00:00 (CET)Groningen Eelde, Nederland (6280): neerslag: 05.12.2018 17:00:00 - 11.12.2018 17:00:00 (CET)
Datum & Tijd tt [°C] td [°C] tt 5cm [°C] ff [km/u] ff [kn] fx [km/u] fx [kn] dd ppp [hPa] vv [km] rr [mm]
11.12.2018 17:00:00 2,7 1,3 -1,4 8 4 11 6 NW 1022,9 10 0,0
11.12.2018 16:00:00 5,1 2,0 2,9 11 6 22 12 NW 1022,6 10 0,0
11.12.2018 15:00:00 6,9 2,3 6,2 15 8 25 14 NW 1022,5 10 0,0
11.12.2018 14:00:00 7,6 2,1 7,2 18 10 29 16 NNW 1022,4 10 0,0
11.12.2018 13:00:00 7,6 2,7 7,6 16 9 29 16 NW 1022,3 10 0,0
11.12.2018 12:00:00 7,4 3,4 6,9 13 7 22 12 WNW 1022,4 10 0,0
11.12.2018 11:00:00 5,7 2,8 5,4 11 6 14 8 W 1022,2 10 0,0
11.12.2018 10:00:00 4,6 1,8 3,2 8 4 18 10 WNW 1021,8 10 0,0
11.12.2018 09:00:00 4,0 1,5 2,8 11 6 25 14 WNW 1021,5 10 0,0
11.12.2018 08:00:00 3,4 1,3 2,0 13 7 22 12 WNW 1021,2 10 0,0
11.12.2018 07:00:00 3,8 1,6 2,8 18 10 29 16 NW 1020,9 10 0,0
11.12.2018 06:00:00 2,7 0,7 1,3 9 5 25 14 W 1020,9 10 0,0
11.12.2018 05:00:00 4,4 1,6 3,5 22 12 40 21 NW 1020,8 10 0,2
11.12.2018 04:00:00 4,8 1,7 3,5 16 9 36 19 WNW 1020,9 10 0,0
11.12.2018 03:00:00 4,9 1,1 4,0 21 11 36 19 NW 1020,8 10 0,0
11.12.2018 02:00:00 4,5 1,5 3,0 13 7 29 16 NW 1020,7 10 0,0
11.12.2018 01:00:00 4,6 1,5 3,5 21 11 29 16 NW 1020,5 10 0,0
11.12.2018 00:00:00 4,6 1,4 2,7 11 6 61 33 W 1020,4 10 0,3
10.12.2018 23:00:00 5,5 2,1 4,4 18 10 50 27 NW 1020,2 10 0,0
10.12.2018 22:00:00 4,4 1,9 3,5 26 14 47 25 NW 1020,3 10 0,7
10.12.2018 21:00:00 5,5 2,5 4,7 16 9 47 25 NW 1020,1 10 0,1
10.12.2018 20:00:00 5,6 2,6 4,7 16 9 32 18 WNW 1019,6 10 0,0
10.12.2018 19:00:00 5,6 2,4 4,7 21 11 36 19 WNW 1019,4 10 0,0
10.12.2018 18:00:00 5,8 2,4 4,5 21 11 32 18 WNW 1019,0 10 0,0
10.12.2018 17:00:00 5,3 2,5 4,3 18 10 32 18 WNW 1018,6 10 0,0
10.12.2018 16:00:00 4,5 2,2 3,8 22 12 65 35 NW 1018,5 10 0,3
10.12.2018 15:00:00 6,6 1,8 6,1 24 13 50 27 WNW 1018,0 10 0,0
10.12.2018 14:00:00 6,6 1,4 5,9 21 11 50 27 WNW 1017,7 10 0,0
10.12.2018 13:00:00 6,2 2,1 5,3 18 10 36 19 WNW 1017,7 10 0,0
10.12.2018 12:00:00 5,4 1,4 4,8 29 16 61 33 WNW 1017,6 10 0,3
10.12.2018 11:00:00 5,4 2,0 5,0 21 11 47 25 WNW 1017,8 10 0,1
10.12.2018 10:00:00 4,5 1,9 3,8 15 8 47 25 W 1017,2 10 0,0
10.12.2018 09:00:00 4,4 2,2 3,7 15 8 50 27 NNW 1017,1 10 0,3
10.12.2018 08:00:00 4,4 1,0 3,4 22 12 50 27 WNW 1016,0 10 0,0
10.12.2018 07:00:00 4,9 1,3 3,3 16 9 29 16 W 1015,6 10 0,0
10.12.2018 06:00:00 4,2 1,3 2,8 15 8 32 18 W 1015,0 10 0,1
10.12.2018 05:00:00 4,4 0,3 3,3 18 10 36 19 WNW 1014,4 10 0,0
10.12.2018 04:00:00 4,8 1,4 3,4 16 9 29 16 W 1013,7 10 0,0
10.12.2018 03:00:00 5,2 2,0 3,9 18 10 36 19 WNW 1013,5 10 0,0
10.12.2018 02:00:00 5,1 1,4 4,0 18 10 40 21 WNW 1012,8 10 0,0
10.12.2018 01:00:00 4,6 2,0 3,2 11 6 25 14 W 1012,2 10 0,1
10.12.2018 00:00:00 4,9 2,1 4,5 21 11 40 21 WNW 1011,5 10 0,0
09.12.2018 23:00:00 5,7 2,5 4,6 18 10 43 23 WNW 1010,5 10 0,1
09.12.2018 22:00:00 5,6 2,4 4,8 18 10 58 31 WNW 1009,5 10 0,0
09.12.2018 21:00:00 6,0 2,7 5,0 22 12 47 25 W 1008,7 10 0,1
09.12.2018 20:00:00 6,0 2,7 4,8 16 9 68 37 WNW 1007,5 10 0,1
09.12.2018 19:00:00 6,1 3,0 4,9 15 8 43 23 WNW 1005,9 10 0,0
09.12.2018 18:00:00 6,4 2,6 5,6 34 18 54 29 NW 1004,3 10 0,2
09.12.2018 17:00:00 7,1 4,1 6,0 24 13 43 23 WNW 1002,8 10 0,2
09.12.2018 16:00:00 8,0 4,8 7,5 21 11 36 19 WNW 1001,0 10 0,1
09.12.2018 15:00:00 8,1 4,9 7,6 26 14 47 25 WNW 999,3 10 0,0
09.12.2018 14:00:00 8,1 5,6 7,8 21 11 43 23 WNW 998,0 10 0,0
09.12.2018 13:00:00 8,0 5,3 7,7 26 14 43 23 WNW 996,7 10 0,3
09.12.2018 12:00:00 8,3 6,3 7,9 22 12 47 25 W 995,8 4,9 1,1
09.12.2018 11:00:00 8,4 5,0 7,8 21 11 43 23 W 994,8 10 0,0
09.12.2018 10:00:00 7,4 5,2 6,7 18 10 29 16 W 993,7 10 0,0
09.12.2018 09:00:00 7,1 5,4 6,2 21 11 32 18 W 992,6 10 0,0
09.12.2018 08:00:00 6,5 5,4 5,9 21 11 29 16 W 991,2 10 0,0
09.12.2018 07:00:00 6,5 5,5 6,2 18 10 36 19 WZW 990,2 10 1,1
09.12.2018 06:00:00 7,0 5,9 6,7 22 12 43 23 WZW 989,8 10 1,9
09.12.2018 05:00:00 7,2 5,8 6,8 21 11 40 21 W 989,2 10 0,6
09.12.2018 04:00:00 7,2 5,7 6,8 28 15 43 23 W 988,4 8 3,3
09.12.2018 03:00:00 7,7 5,6 7,2 31 17 61 33 W 988,6 10 1,2
09.12.2018 02:00:00 8,6 6,7 8,0 29 16 47 25 W 987,6 6 0,2
09.12.2018 01:00:00 8,7 6,8 8,3 29 16 50 27 W 987,3 10 0,8
09.12.2018 00:00:00 7,9 6,8 7,6 26 14 40 21 WZW 987,2 5 0,6
08.12.2018 23:00:00 7,9 6,2 7,5 31 17 61 33 WNW 987,6 10 1,9
08.12.2018 22:00:00 9,7 8,5 9,0 29 16 50 27 WZW 987,7 10 2,3
08.12.2018 21:00:00 8,1 7,5 7,7 15 8 32 18 Z 989,1 5 5,5
08.12.2018 20:00:00 8,2 6,9 7,9 28 15 43 23 ZW 991,8 6 0,8
08.12.2018 19:00:00 8,6 5,5 8,1 29 16 47 25 WZW 993,5 10 0,0
08.12.2018 18:00:00 8,6 5,2 8,0 34 18 58 31 WZW 994,9 10 0,0
08.12.2018 17:00:00 9,0 4,9 8,3 35 19 58 31 WZW 995,8 10 0,0
08.12.2018 16:00:00 9,1 5,5 8,5 34 18 58 31 WZW 995,9 10 0,0
08.12.2018 15:00:00 9,2 5,6 8,6 37 20 61 33 WZW 995,8 10 0,0
08.12.2018 14:00:00 9,0 6,2 8,5 39 21 61 33 WZW 995,5 10 0,2
08.12.2018 13:00:00 8,9 6,6 8,6 37 20 61 33 WZW 995,6 10 0,2
08.12.2018 12:00:00 8,8 6,6 8,5 37 20 54 29 WZW 995,4 10 0,4
08.12.2018 11:00:00 8,3 7,0 8,0 34 18 54 29 WZW 995,6 6 1,2
08.12.2018 10:00:00 7,7 6,7 7,5 31 17 58 31 WZW 995,6 6 2,1
08.12.2018 09:00:00 7,8 6,3 7,4 37 20 50 27 ZW 995,6 9 0,6
08.12.2018 08:00:00 7,5 6,3 7,2 34 18 54 29 ZW 995,9 10 0,3
08.12.2018 07:00:00 7,4 6,0 6,9 34 18 61 33 ZW 996,2 9 1,2
08.12.2018 06:00:00 6,7 5,5 6,4 31 17 47 25 ZW 997,0 6 0,7
08.12.2018 05:00:00 6,3 3,9 5,9 26 14 47 25 ZZW 997,4 10 0,0
08.12.2018 04:00:00 6,7 3,5 6,0 34 18 47 25 ZW 997,9 10 0,0
08.12.2018 03:00:00 6,2 3,1 5,7 29 16 43 23 ZW 998,7 10 0,0
08.12.2018 02:00:00 5,9 2,9 4,9 28 15 43 23 ZW 998,8 10 0,0
08.12.2018 01:00:00 5,9 2,9 5,0 28 15 36 19 ZW 999,0 10 0,0
08.12.2018 00:00:00 5,5 3,1 4,5 22 12 36 19 ZW 999,0 10 0,0
07.12.2018 23:00:00 5,7 3,4 4,8 18 10 43 23 WZW 998,6 10 0,0
07.12.2018 22:00:00 6,4 3,3 5,6 26 14 50 27 W 998,1 10 0,1
07.12.2018 21:00:00 7,0 4,9 6,2 24 13 32 18 WZW 996,9 10 0,0
07.12.2018 20:00:00 6,6 4,7 6,1 16 9 29 16 WZW 996,0 10 0,1
07.12.2018 19:00:00 7,0 5,3 6,7 21 11 50 27 W 995,2 10 0,5
07.12.2018 18:00:00 8,5 7,2 8,3 31 17 50 27 WNW 994,1 8 1,6
07.12.2018 17:00:00 10,8 9,8 10,6 34 18 50 27 ZZW 993,0 9 2,0
07.12.2018 16:00:00 11,0 10,1 10,8 34 18 47 25 ZZW 994,3 3,5 0,2
07.12.2018 15:00:00 11,1 10,3 10,9 34 18 47 25 ZZW 995,6 5 0,1
07.12.2018 14:00:00 11,3 10,4 11,1 31 17 54 29 ZZW 997,1 3,6 0,0
07.12.2018 13:00:00 11,4 10,6 11,3 34 18 50 27 ZZW 998,7 5 0,2
07.12.2018 12:00:00 11,4 10,6 11,2 39 21 58 31 ZW 1000,3 3,5 0,2
07.12.2018 11:00:00 11,5 10,7 11,2 29 16 50 27 ZZW 1001,4 3,6 0,3
07.12.2018 10:00:00 11,2 10,7 11,1 28 15 40 21 ZZW 1002,6 3,2 1,0
07.12.2018 09:00:00 11,2 10,7 11,0 28 15 40 21 ZZW 1003,6 3,6 0,5
07.12.2018 08:00:00 11,0 10,6 10,9 26 14 36 19 ZZW 1004,6 3,7 0,3
07.12.2018 07:00:00 11,2 10,8 11,1 22 12 40 21 ZZW 1005,5 2,6 0,4
07.12.2018 06:00:00 11,4 10,8 11,2 26 14 40 21 ZW 1006,4 3,2 0,2
07.12.2018 05:00:00 11,4 10,9 11,1 22 12 36 19 ZW 1007,3 2,7 0,4
07.12.2018 04:00:00 11,2 10,8 11,1 24 13 36 19 ZW 1008,1 3,0 0,7
07.12.2018 03:00:00 11,2 10,7 11,0 24 13 40 21 WZW 1008,8 2,6 0,5
07.12.2018 02:00:00 11,2 10,7 11,0 26 14 36 19 WZW 1009,2 3,4 0,2
07.12.2018 01:00:00 11,0 10,5 10,8 28 15 36 19 ZW 1009,9 2,9 0,5
07.12.2018 00:00:00 10,8 10,3 10,7 28 15 43 23 WZW 1010,2 2,9 1,4
06.12.2018 23:00:00 10,9 10,3 10,7 28 15 47 25 WZW 1010,4 2,6 0,5
06.12.2018 22:00:00 11,2 10,5 11,0 28 15 47 25 WZW 1010,7 2,7 0,3
06.12.2018 21:00:00 11,5 10,2 11,2 29 16 50 27 WZW 1010,8 10 0,0
06.12.2018 20:00:00 11,2 10,4 10,8 31 17 47 25 ZW 1011,4 6 0,0
06.12.2018 19:00:00 10,6 10,0 10,4 24 13 40 21 ZW 1011,6 2,9 0,0
06.12.2018 18:00:00 10,4 9,4 10,1 24 13 40 21 ZW 1012,1 9 0,0
06.12.2018 17:00:00 10,4 9,4 10,1 28 15 43 23 ZW 1012,4 10 0,0
06.12.2018 16:00:00 10,9 10,0 10,6 24 13 36 19 ZW 1012,3 10 0,0
06.12.2018 15:00:00 11,0 10,3 10,8 22 12 32 18 ZW 1012,6 6 0,0
06.12.2018 14:00:00 11,0 10,4 10,9 18 10 32 18 WZW 1012,7 2,5 0,1
06.12.2018 13:00:00 11,3 10,7 11,1 21 11 32 18 WZW 1012,7 6 0,0
06.12.2018 12:00:00 10,8 10,7 10,6 18 10 29 16 ZW 1012,7 0,7 0,2
06.12.2018 11:00:00 10,2 10,1 10,2 15 8 25 14 ZZW 1012,7 0,4 0,0
06.12.2018 10:00:00 9,8 9,7 9,7 13 7 22 12 ZZW 1012,4 0,3 0,0
06.12.2018 09:00:00 9,5 9,4 9,3 13 7 22 12 ZW 1012,3 0,5 0,0
06.12.2018 08:00:00 9,0 8,7 8,6 13 7 22 12 ZZW 1011,7 1,6 0,0
06.12.2018 07:00:00 8,4 8,1 8,2 16 9 25 14 ZZW 1011,3 2,9 0,0
06.12.2018 06:00:00 7,9 7,5 7,7 15 8 22 12 Z 1011,1 2,4 0,1
06.12.2018 05:00:00 7,6 7,2 7,4 13 7 22 12 Z 1011,3 1,9 0,0
06.12.2018 04:00:00 7,5 6,8 7,2 16 9 25 14 Z 1011,1 5 0,0
06.12.2018 03:00:00 7,3 6,6 7,0 16 9 29 16 Z 1011,6 4,0 0,0
06.12.2018 02:00:00 7,0 6,3 6,7 16 9 25 14 Z 1011,7 5 0,2
06.12.2018 01:00:00 6,8 6,2 6,6 16 9 29 16 Z 1012,2 3,5 0,2
06.12.2018 00:00:00 6,6 6,0 6,4 16 9 29 16 Z 1012,6 4,0 0,4
05.12.2018 23:00:00 6,4 5,7 6,1 13 7 29 16 ZZO 1013,2 5 0,5
05.12.2018 22:00:00 6,0 5,5 5,8 21 11 36 19 ZZO 1013,5 3,5 0,1
05.12.2018 21:00:00 5,6 4,8 5,3 24 13 36 19 ZZO 1014,1 5 1,3
05.12.2018 20:00:00 5,5 4,2 5,3 22 12 36 19 ZZO 1014,8 3,9 0,0
05.12.2018 19:00:00 5,4 3,9 4,9 15 8 29 16 ZO 1015,9 7 0,7
05.12.2018 18:00:00 4,9 3,4 4,6 15 8 25 14 ZO 1016,7 10 0,3
05.12.2018 17:00:00 4,9 3,0 4,5 13 7 25 14 ZO 1017,8 10 0,0

tt = temperatuur
td = dauwpunt
tt 5cm = temperatuur 5cm
ff = windsnelheid
fx = windstoten
dd = windrichting
ppp = luchtdruk
vv = zicht
rr = neerslag

Weerstations in de omgeving